Prague, Czech Republic

2:25 PM CET on February 21, 2017 (GMT +0100)
Ruzyne

Weather History for LKPR - November, 2012

Change the Weather History Date:

Wednesday, November 14, 2012

  Actual Average Record
Temperature  
Mean Temperature 30 °F -  
Max Temperature 35 °F 39 °F 64 °F (2010)
Min Temperature 24 °F 29 °F 20 °F (2016)
Degree Days  
Heating Degree Days 36    
Moisture  
Dew Point 29 °F    
Average Humidity 96    
Maximum Humidity 100    
Minimum Humidity 87    
Precipitation  
Precipitation 0.00 in 0.04 in - ()
Sea Level Pressure  
Sea Level Pressure 30.45 in    
Wind  
Wind Speed 2 mph ()    
Max Wind Speed 5 mph    
Max Gust Speed -    
Visibility 0.7 miles    
Events Fog    
Averages and records for this station are not official NWS values.
T = Trace of Precipitation, MM = Missing Value Source: Averaged Metar Reports

Daily Weather History Graph

Daily Weather History Graph

Search for Another Location

Airport or City:

Trip Planner

Search our weather history database for the weather conditions in past years. The results will help you decide how hot, cold, wet, or windy it might be!

Date:

Astronomy

Nov. 14, 2012 Rise Set
Actual Time 7:14 AM CET 4:19 PM CET
Civil Twilight 6:39 AM CET 4:54 PM CET
Nautical Twilight 5:59 AM CET 5:34 PM CET
Astronomical Twilight 5:21 AM CET 6:12 PM CET
Moon 7:48 AM CET (11/14) 4:45 PM CET (11/14)
Length of Visible Light 10h 15m
Length of Day
9h 04m
New Moon, 0% of the Moon is Illuminated
Nov 14
New Moon
Nov 20
First Quarter
Nov 28
Full
Dec 6
Last Quarter
Dec 13
New

Hourly Weather History & Observations

Time (CET) Temp. Windchill Dew Point Humidity Pressure Visibility Wind Dir Wind Speed Gust Speed Precip Events Conditions
12:00 AM 33.8 °F - 30.2 °F 87% 30.51 in 5.0 mi ENE 2.3 mph - N/A   Unknown
12:30 AM 33.8 °F - 30.2 °F 87% 30.51 in 5.0 mi Variable 1.2 mph - N/A   Unknown
1:00 AM 31 °F - 29 °F 92% 30.58 in 4 mi WSW 2.2 mph - -   Mist
1:00 AM 32.0 °F - 30.2 °F 93% 30.51 in 4.3 mi Variable 1.2 mph - N/A   Unknown
1:30 AM 32.0 °F 28.7 °F 30.2 °F 93% 30.51 in 3.7 mi NNW 3.5 mph - N/A   Unknown
2:00 AM 30.2 °F - 30.2 °F 100% 30.48 in 3.7 mi North 2.3 mph - N/A   Unknown
2:30 AM 30.2 °F 26.7 °F 30.2 °F 100% 30.48 in 3.1 mi NNE 3.5 mph - N/A Fog Fog
3:00 AM 30.2 °F - 28.4 °F 93% 30.48 in 2.2 mi West 2.3 mph - N/A Fog Fog
3:30 AM 30.2 °F - 28.4 °F 93% 30.48 in 1.2 mi NW 1.2 mph - N/A Fog Light Freezing Fog
3:44 AM 28.4 °F - 28.4 °F 100% 30.48 in 0.6 mi Calm Calm - N/A Fog Light Freezing Fog
4:00 AM 28.4 °F - 28.4 °F 100% 30.48 in 0.2 mi Calm Calm - N/A Fog Light Freezing Fog
4:04 AM 28.4 °F - 28.4 °F 100% 30.48 in 0.2 mi Calm Calm - N/A Fog Light Freezing Fog
4:10 AM 28.4 °F - 28.4 °F 100% 30.48 in 0.2 mi Calm Calm - N/A Fog Light Freezing Fog
4:30 AM 26.6 °F - 26.6 °F 100% 30.48 in 0.2 mi Calm Calm - N/A Fog Light Freezing Fog
4:43 AM 26.6 °F - 26.6 °F 100% 30.48 in 0.2 mi Calm Calm - N/A Fog Light Freezing Fog
5:00 AM 26.6 °F - 26.6 °F 100% 30.48 in 0.2 mi West 1.2 mph - N/A Fog Light Freezing Fog
5:04 AM 26.6 °F - 26.6 °F 100% 30.48 in 0.2 mi Variable 1.2 mph - N/A Fog Light Freezing Fog
5:30 AM 28.4 °F - 26.6 °F 93% 30.48 in 0.1 mi Calm Calm - N/A Fog Light Freezing Fog
6:00 AM 28.4 °F - 26.6 °F 93% 30.48 in 0.2 mi West 2.3 mph - N/A Fog Light Freezing Fog
6:06 AM 28.4 °F - 26.6 °F 93% 30.48 in 0.2 mi West 1.2 mph - N/A Fog Light Freezing Fog
6:15 AM 28.4 °F - 26.6 °F 93% 30.48 in 0.2 mi West 1.2 mph - N/A Fog Light Freezing Fog
6:23 AM 28.4 °F - 26.6 °F 93% 30.48 in 0.2 mi Variable 1.2 mph - N/A Fog Light Freezing Fog
6:30 AM 28.4 °F - 26.6 °F 93% 30.48 in 0.2 mi Variable 1.2 mph - N/A Fog Light Freezing Fog
6:49 AM 28.4 °F - 26.6 °F 93% 30.48 in 0.2 mi West 2.3 mph - N/A Fog Light Freezing Fog
7:00 AM 28 °F - 26 °F 91% 30.57 in 0 mi WNW 2.2 mph - - Fog Fog
7:00 AM 26.6 °F - 26.6 °F 100% 30.48 in 0.2 mi West 2.3 mph - N/A Fog Light Freezing Fog
7:13 AM 26.6 °F - 26.6 °F 100% 30.48 in 0.2 mi West 2.3 mph - N/A Fog Light Freezing Fog
7:30 AM 26.6 °F 22.6 °F 26.6 °F 100% 30.48 in 0.2 mi WSW 3.5 mph - N/A Fog Light Freezing Fog
7:48 AM 26.6 °F 22.6 °F 26.6 °F 100% 30.48 in 0.2 mi West 3.5 mph - N/A Fog Light Freezing Fog
8:00 AM 26.6 °F 22.6 °F 26.6 °F 100% 30.51 in 0.2 mi West 3.5 mph - N/A Fog Light Freezing Fog
8:30 AM 28.4 °F - 26.6 °F 93% 30.51 in 0.2 mi West 2.3 mph - N/A Fog Light Freezing Fog
9:00 AM 30.2 °F - 30.2 °F 100% 30.51 in 0.6 mi West 1.2 mph - N/A   Mostly Cloudy
9:30 AM 32.0 °F - 30.2 °F 93% 30.48 in 1.2 mi Calm Calm - N/A   Partly Cloudy
10:00 AM 33.8 °F - 32.0 °F 93% 30.48 in 1.4 mi Variable 1.2 mph - N/A   Partly Cloudy
10:22 AM 33.8 °F 30.8 °F 32.0 °F 93% 30.48 in 1.2 mi North 3.5 mph - N/A   Partly Cloudy
10:30 AM 33.8 °F 30.8 °F 32.0 °F 93% 30.48 in 0.6 mi North 3.5 mph - N/A   Scattered Clouds
11:00 AM 32.0 °F - 30.2 °F 93% 30.48 in 0.1 mi Variable 2.3 mph - N/A Fog Light Freezing Fog
11:30 AM 32.0 °F 28.7 °F 32.0 °F 100% 30.48 in 0.1 mi NNW 3.5 mph - N/A Fog Fog
12:00 PM 33.8 °F - 32.0 °F 93% 30.45 in 0.2 mi Variable 2.3 mph - N/A Fog Fog
12:30 PM 33.8 °F 30.8 °F 33.8 °F 100% 30.45 in 0.1 mi NNW 3.5 mph - N/A Fog Fog
1:00 PM 33.8 °F 30.8 °F 33.8 °F 100% 30.45 in 0.2 mi Variable 3.5 mph - N/A Fog Fog
1:12 PM 35 °F - 34 °F 94% 30.52 in 0 mi North 4.5 mph - - Fog Heavy Fog
1:30 PM 33.8 °F 30.8 °F 33.8 °F 100% 30.45 in 0.5 mi North 3.5 mph - N/A Fog Fog
1:33 PM 33.8 °F 30.8 °F 33.8 °F 100% 30.45 in 1.0 mi North 3.5 mph - N/A   Scattered Clouds
2:00 PM 35.6 °F 31.7 °F 33.8 °F 93% 30.42 in 0.6 mi NNW 4.6 mph - N/A   Mostly Cloudy
2:30 PM 33.8 °F 29.6 °F 33.8 °F 100% 30.42 in 0.1 mi North 4.6 mph - N/A   Unknown
3:00 PM 33.8 °F 30.8 °F 33.8 °F 100% 30.42 in 0.1 mi NNW 3.5 mph - N/A Fog Fog
3:30 PM 33.8 °F 30.8 °F 33.8 °F 100% 30.42 in 0.1 mi NNW 3.5 mph - N/A Fog Fog
4:00 PM 32.0 °F - 32.0 °F 100% 30.42 in 0.1 mi Variable 2.3 mph - N/A Fog Fog
4:30 PM 32.0 °F - 30.2 °F 93% 30.39 in 0.1 mi Variable 1.2 mph - N/A Fog Light Freezing Fog
5:00 PM 30.2 °F - 30.2 °F 100% 30.39 in 0.1 mi West 2.3 mph - N/A Fog Light Freezing Fog
5:30 PM 30.2 °F - 28.4 °F 93% 30.39 in 0.1 mi Variable 1.2 mph - N/A Fog Light Freezing Fog
5:52 PM 28.4 °F - 28.4 °F 100% 30.39 in 0.2 mi Variable 2.3 mph - N/A Fog Light Freezing Fog
6:00 PM 28.4 °F - 28.4 °F 100% 30.39 in 0.2 mi Variable 1.2 mph - N/A Fog Light Freezing Fog
6:30 PM 28.4 °F - 26.6 °F 93% 30.39 in 0.2 mi Calm Calm - N/A Fog Light Freezing Fog
6:42 PM 26.6 °F - 26.6 °F 100% 30.39 in 0.2 mi Calm Calm - N/A Fog Light Freezing Fog
6:45 PM 26.6 °F - 26.6 °F 100% 30.39 in 0.2 mi Calm Calm - N/A Fog Light Freezing Fog
6:51 PM 26.6 °F - 26.6 °F 100% 30.39 in 0.2 mi Calm Calm - N/A Fog Light Freezing Fog
7:00 PM 27 °F - 26 °F 95% 30.48 in 0 mi West 2.2 mph - - Fog Partial Fog
7:00 PM 26.6 °F - 26.6 °F 100% 30.39 in 0.3 mi Variable 1.2 mph - N/A Fog Light Freezing Fog
7:08 PM 26.6 °F - 24.8 °F 93% 30.39 in 0.3 mi Variable 1.2 mph - N/A Fog Light Freezing Fog
7:12 PM 26.6 °F - 24.8 °F 93% 30.39 in 0.2 mi Variable 1.2 mph - N/A Fog Light Freezing Fog
7:30 PM 24.8 °F 20.5 °F 24.8 °F 100% 30.39 in 0.2 mi NNW 3.5 mph - N/A Fog Light Freezing Fog
7:35 PM 26.6 °F 22.6 °F 24.8 °F 93% 30.39 in 0.2 mi NNW 3.5 mph - N/A Fog Light Freezing Fog
7:42 PM 26.6 °F - 26.6 °F 100% 30.39 in 0.2 mi Variable 2.3 mph - N/A Fog Light Freezing Fog
7:53 PM 28.4 °F 24.6 °F 26.6 °F 93% 30.39 in 0.2 mi NW 3.5 mph - N/A Fog Light Freezing Fog
8:00 PM 28.4 °F 24.6 °F 28.4 °F 100% 30.39 in 0.2 mi NW 3.5 mph - N/A Fog Light Freezing Fog
8:09 PM 28.4 °F 23.3 °F 28.4 °F 100% 30.39 in 0.2 mi NNW 4.6 mph - N/A Fog Light Freezing Fog
8:30 PM 28.4 °F 23.3 °F 28.4 °F 100% 30.39 in 0.1 mi NNW 4.6 mph - N/A Fog Light Freezing Fog
9:00 PM 30.2 °F 26.7 °F 28.4 °F 93% 30.39 in 0.2 mi North 3.5 mph - N/A Fog Light Freezing Fog
9:30 PM 30.2 °F 26.7 °F 28.4 °F 93% 30.39 in 0.2 mi North 3.5 mph - N/A Fog Light Freezing Fog
10:00 PM 30.2 °F 26.7 °F 30.2 °F 100% 30.39 in 0.2 mi NE 3.5 mph - N/A Fog Light Freezing Fog
10:30 PM 30.2 °F 26.7 °F 28.4 °F 93% 30.36 in 0.2 mi ENE 3.5 mph - N/A Fog Light Freezing Fog
11:00 PM 30.2 °F - 28.4 °F 93% 30.36 in 0.2 mi Variable 2.3 mph - N/A Fog Light Freezing Fog
11:30 PM 30.2 °F - 28.4 °F 93% 30.36 in 0.2 mi Variable 2.3 mph - N/A Fog Light Freezing Fog